Tacoma, WA

9:26 PM PDT on May 28, 2017 (GMT -0700)
McChord Air Force Base

Weather History for KTCM - June, 2013

Change the Weather History Date:

Saturday, June 29, 2013

  Actual Average Record
Temperature  
Mean Temperature 74 °F -  
Max Temperature 84 °F 69 °F 92 °F (2008)
Min Temperature 63 °F 49 °F 42 °F (2009)
Cooling Degree Days 8    
Growing Degree Days 24 (Base 50)    
Moisture  
Dew Point 59 °F    
Average Humidity 63    
Maximum Humidity 88    
Minimum Humidity 46    
Precipitation  
Precipitation 0.00 in - - ()
Sea Level Pressure  
Sea Level Pressure 30.08 in    
Wind  
Wind Speed 4 mph (NW)    
Max Wind Speed 10 mph    
Max Gust Speed -    
Visibility 10 miles    
Events      
Averages and records for this station are not official NWS values.
T = Trace of Precipitation, MM = Missing Value Source: NWS Daily Summary

Daily Weather History Graph

Daily Weather History Graph

Search for Another Location

Airport or City:

Trip Planner

Search our weather history database for the weather conditions in past years. The results will help you decide how hot, cold, wet, or windy it might be!

Date:

Astronomy

Jun. 29, 2013 Rise Set
Actual Time 5:17 AM PDT 9:09 PM PDT
Civil Twilight 4:37 AM PDT 9:49 PM PDT
Nautical Twilight 3:42 AM PDT 10:43 PM PDT
Astronomical Twilight 2:21 AM PDT 12:04 AM PDT
Moon 12:12 AM PDT 1:05 PM PDT
Length of Visible Light 17h 11m
Length of Day
15h 52m
Waning Gibbous, 54% of the Moon is Illuminated
Jun 29
Waning Gibbous
Jun 29
Last Quarter
Jul 8
New
Jul 15
First Quarter
Jul 22
Full

Hourly Weather History & Observations

Time (PDT) Temp. Heat Index Dew Point Humidity Pressure Visibility Wind Dir Wind Speed Gust Speed Precip Events Conditions
12:58 AM 64.4 °F - 58.8 °F 82% 30.12 in 10.0 mi SW 3.5 mph - N/A   Mostly Cloudy
1:58 AM 68.2 °F - 56.8 °F 67% 30.13 in 10.0 mi Variable 4.6 mph - N/A   Mostly Cloudy
2:58 AM 66.0 °F - 57.2 °F 73% 30.13 in 10.0 mi SE 3.5 mph - N/A   Scattered Clouds
3:58 AM 63.7 °F - 59.0 °F 85% 30.12 in 10.0 mi East 4.6 mph - N/A   Scattered Clouds
4:58 AM 63.0 °F - 59.4 °F 88% 30.11 in 10.0 mi Calm Calm - N/A   Mostly Cloudy
5:58 AM 65.3 °F - 56.7 °F 74% 30.11 in 10.0 mi NW 2.3 mph - N/A   Mostly Cloudy
6:58 AM 65.8 °F - 57.6 °F 75% 30.11 in 10.0 mi NW 3.5 mph - N/A   Overcast
7:58 AM 67.8 °F - 58.6 °F 72% 30.11 in 10.0 mi Variable 3.5 mph - N/A   Mostly Cloudy
8:58 AM 70.2 °F - 60.3 °F 71% 30.11 in 10.0 mi ENE 3.5 mph - N/A   Partly Cloudy
9:58 AM 71.1 °F - 58.6 °F 65% 30.11 in 10.0 mi Variable 3.5 mph - N/A   Mostly Cloudy
10:58 AM 73.0 °F - 58.1 °F 59% 30.11 in 10.0 mi SSW 2.3 mph - N/A   Mostly Cloudy
11:58 AM 76.1 °F - 58.5 °F 54% 30.12 in 10.0 mi WSW 5.8 mph - N/A   Partly Cloudy
12:58 PM 79.5 °F - 59.4 °F 50% 30.10 in 10.0 mi Variable 1.2 mph - N/A   Scattered Clouds
1:58 PM 80.2 °F 81.0 °F 59.9 °F 50% 30.09 in 10.0 mi Variable 2.3 mph - N/A   Clear
2:58 PM 81.9 °F 82.3 °F 60.6 °F 48% 30.07 in 10.0 mi North 5.8 mph - N/A   Clear
3:58 PM 83.3 °F 84.1 °F 62.2 °F 49% 30.06 in 10.0 mi Variable 2.3 mph - N/A   Clear
4:58 PM 84.2 °F 84.8 °F 62.1 °F 47% 30.04 in 10.0 mi NW 10.4 mph - N/A   Clear
5:58 PM 84.2 °F 84.8 °F 61.7 °F 47% 30.03 in 10.0 mi Variable 3.5 mph - N/A   Clear
6:58 PM 83.8 °F 84.1 °F 60.8 °F 46% 30.02 in 10.0 mi NW 9.2 mph - N/A   Clear
7:58 PM 82.2 °F 82.7 °F 60.6 °F 48% 30.02 in 10.0 mi NW 8.1 mph - N/A   Clear
8:58 PM 79.2 °F - 59.9 °F 52% 30.02 in 10.0 mi WNW 5.8 mph - N/A   Clear
9:58 PM 76.1 °F - 60.1 °F 57% 30.03 in 10.0 mi WNW 5.8 mph - N/A   Clear
10:58 PM 72.7 °F - 61.0 °F 67% 30.03 in 10.0 mi North 4.6 mph - N/A   Clear
11:58 PM 68.0 °F - 59.5 °F 74% 30.04 in 10.0 mi North 2.3 mph - N/A   Clear